Погода в Порт-Макнейле

Канада     50°25′10″N   127°05′10″W
темп.,
°C
ветер,
м/с
пор.,
м/с
влажн.,
%
обл.,
%
осадки,
мм/ч
давл.,
гПа
погр.,
м
20 апреля, вт
вт2023:00+8зсз0192100 0.1 102561
02:00+7ююз0192100 0.0 102615
05:00+6зюз118769 0.0 102521
08:00+7сз1383100 0.0 1025160
11:00+11ссз346358 0.0 1025419
14:00+12ссз346141 0.0 1024584
17:00+11ссз456893 0.0 1024432
20:00+8сз248598 0.0 1023111
21 апреля, ср
ср2123:00+6сз128533 0.0 102332
02:00+5зсз359236 0.0 1023226
05:00+5зсз259567 0.1 1023245
08:00+6зсз2490100 0.1 1022361
11:00+9сз4676100 0.1 1022623
14:00+10сз4669100 0.0 1021595
17:00+10сз576557 0.0 1019582
20:00+8зсз35705 0.0 1018140
22 апреля, чт
чт2223:00+5з247624 0.0 101894
02:00+4з258883 0.0 1017218
05:00+5зсз259190 0.1 1016443
08:00+6зсз348561 0.1 1015420
11:00+9ссз347213 0.1 1015610
14:00+10ссз33693 0.0 1014554
17:00+10ссз337216 0.0 1013483
20:00+7сз139442 0.0 1013125
23 апреля, пт
пт2323:00+5ююз019290 0.0 101420
02:00+5ю1191100 0.0 101330
05:00+5ююв1190100 0.0 101343
08:00+7юв1180100 0.0 1012126
11:00+10св1267100 0.0 1011560
14:00+12с1261100 0.0 1010891
17:00+10зсз2374100 0.1 1009415
20:00+7зсз1298100 2.2 1009146
24 апреля, сб
сб2423:00+7ююз1296100 5.6 1008205
02:00+6ююз1394100 2.1 1007237
05:00+6ю1294100 3.4 1006185
08:00+6ююз1194100 1.6 1005242
11:00+6с0195100 3.3 1005347
14:00+6с1194100 1.4 1004420
17:00+6сз1195100 3.3 1004238
20:00+6ссз3497100 2.0 1004367